Terminal Aerodrome Forecast
Issued by NWS

Home | Current Version | Previous Version | Graphics & Text | Print | Product List | Glossary On
Versions: 1 2 3 4 5 6 7 8 9 10 11 12 13 14 15 16 17 18 19 20 21 22 23 24
000
FTUS43 KLOT 261600 AAB
TAFMDW
TAF AMD
KMDW 261601Z 2616/2712 20013G19KT P6SM BKN200
     FM262200 21011KT P6SM SCT020 BKN150
     FM270000 18008KT P6SM OVC018
     FM270900 20008KT 3SM -DZRA BR OVC010=

USA.gov is the U.S. government's official web portal to all federal, state and local government web resources and services.